| time (UTC) | temp F | wind direction | speed MPH | gust MPH | rain 1hr in | rain 24hr in | rain mn in | humidity % | barometer mb |
| 20260508090831 | 32 | 33 | 0.0 | 0.0 | 0.00 | 0.00 | 0.00 | 91 | 1010.0 |
| 20260508085828 | 32 | 33 | 0.0 | 0.0 | 0.00 | 0.00 | 0.00 | 90 | 1010.0 |
| 20260508085327 | 32 | 33 | 0.0 | 0.0 | 0.00 | 0.00 | 0.00 | 90 | 1009.9 |
| 20260508084826 | 32 | 33 | 0.0 | 0.0 | 0.00 | 0.00 | 0.00 | 90 | 1009.9 |
| 20260508084327 | 32 | 33 | 0.0 | 0.0 | 0.00 | 0.00 | 0.00 | 90 | 1009.9 |
| 20260508083826 | 32 | 33 | 0.0 | 0.0 | 0.00 | 0.00 | 0.00 | 90 | 1009.8 |
| 20260508083320 | 32 | 33 | 0.0 | 0.0 | 0.00 | 0.00 | 0.00 | 91 | 1009.8 |
| 20260508082820 | 32 | 33 | 0.0 | 0.0 | 0.00 | 0.00 | 0.00 | 91 | 1009.7 |
| 20260508082320 | 32 | 33 | 0.0 | 0.0 | 0.00 | 0.00 | 0.00 | 89 | 1009.7 |
| 20260508081821 | 32 | 33 | 0.0 | 0.0 | 0.00 | 0.00 | 0.00 | 89 | 1009.6 |
| 20260508081318 | 32 | 33 | 0.0 | 0.0 | 0.00 | 0.00 | 0.00 | 89 | 1009.6 |
| 20260508080820 | 32 | 33 | 0.0 | 0.0 | 0.00 | 0.00 | 0.00 | 89 | 1009.6 |
| 20260508080316 | 32 | 33 | 0.0 | 0.0 | 0.00 | 0.00 | 0.00 | 89 | 1009.6 |
| 20260508075815 | 32 | 33 | 0.0 | 0.0 | 0.00 | 0.00 | 0.00 | 88 | 1009.6 |
| 20260508075314 | 33 | 33 | 0.0 | 0.0 | 0.00 | 0.00 | 0.00 | 88 | 1009.5 |
| 20260508074816 | 33 | 33 | 0.0 | 0.0 | 0.00 | 0.00 | 0.00 | 88 | 1009.4 |
| 20260508073812 | 33 | 33 | 0.0 | 0.0 | 0.00 | 0.00 | 0.00 | 89 | 1009.4 |
| 20260508073308 | 33 | 33 | 0.0 | 0.0 | 0.00 | 0.00 | 0.00 | 88 | 1009.4 |
| 20260508072808 | 33 | 33 | 0.0 | 0.0 | 0.00 | 0.00 | 0.00 | 88 | 1009.5 |
| 20260508072309 | 33 | 33 | 0.0 | 0.0 | 0.00 | 0.00 | 0.00 | 88 | 1009.6 |
| 20260508072040 | 33 | 33 | 0.0 | 0.0 | 0.00 | 0.00 | 0.00 | 86 | 1009.5 |
| 20260508071306 | 33 | 33 | 0.0 | 0.0 | 0.00 | 0.00 | 0.00 | 86 | 1009.5 |
| 20260508071038 | 33 | 33 | 0.0 | 0.0 | 0.00 | 0.00 | 0.00 | 87 | 1009.4 |
| 20260508070300 | 34 | 33 | 0.0 | 0.0 | 0.00 | 0.00 | 0.00 | 87 | 1009.4 |
| 20260508065759 | 34 | 33 | 0.0 | 0.0 | 0.00 | 0.00 | 0.00 | 86 | 1009.4 |
| 20260508065256 | 34 | 33 | 0.0 | 0.0 | 0.00 | 0.00 | 0.00 | 86 | 1009.5 |
| 20260508064754 | 34 | 33 | 0.0 | 0.0 | 0.00 | 0.00 | 0.00 | 85 | 1009.5 |
| 20260508064254 | 35 | 33 | 0.0 | 0.0 | 0.00 | 0.00 | 0.00 | 84 | 1009.5 |
| 20260508063748 | 35 | 33 | 0.0 | 0.0 | 0.00 | 0.00 | 0.00 | 85 | 1009.5 |
| 20260508063245 | 35 | 33 | 0.0 | 0.0 | 0.00 | 0.00 | 0.00 | 82 | 1009.6 |
| 20260508063014 | 35 | 33 | 0.0 | 0.0 | 0.00 | 0.00 | 0.00 | 82 | 1009.6 |
| 20260508062242 | 35 | 33 | 0.0 | 0.0 | 0.00 | 0.00 | 0.00 | 83 | 1009.6 |
| 20260508061747 | 35 | 33 | 0.0 | 0.0 | 0.00 | 0.00 | 0.00 | 84 | 1009.6 |
| 20260508061236 | 35 | 33 | 0.0 | 0.0 | 0.00 | 0.00 | 0.00 | 86 | 1009.6 |
| 20260508060735 | 35 | 33 | 0.0 | 0.0 | 0.00 | 0.00 | 0.00 | 86 | 1009.7 |
| 20260508060233 | 35 | 33 | 0.0 | 0.0 | 0.00 | 0.00 | 0.00 | 86 | 1009.8 |
| 20260508055729 | 35 | 33 | 0.0 | 0.0 | 0.00 | 0.00 | 0.00 | 85 | 1009.8 |
| 20260508055231 | 35 | 33 | 0.0 | 0.0 | 0.00 | 0.00 | 0.00 | 84 | 1009.8 |
| 20260508054728 | 36 | 33 | 0.0 | 0.0 | 0.00 | 0.00 | 0.00 | 83 | 1009.9 |
| 20260508054228 | 36 | 33 | 0.0 | 0.0 | 0.00 | 0.00 | 0.00 | 81 | 1009.9 |
| 20260508054000 | 36 | 33 | 0.0 | 0.0 | 0.00 | 0.00 | 0.00 | 80 | 1010.0 |
| 20260508053225 | 36 | 33 | 0.0 | 0.0 | 0.00 | 0.00 | 0.00 | 79 | 1010.0 |
| 20260508052724 | 36 | 33 | 0.0 | 0.0 | 0.00 | 0.00 | 0.00 | 80 | 1010.0 |
| 20260508052225 | 36 | 33 | 0.0 | 0.0 | 0.00 | 0.00 | 0.00 | 82 | 1010.0 |
| 20260508051952 | 36 | 33 | 0.0 | 0.0 | 0.00 | 0.00 | 0.00 | 80 | 1010.1 |
| 20260508051219 | 37 | 33 | 0.0 | 0.0 | 0.00 | 0.00 | 0.00 | 79 | 1010.1 |
| 20260508050721 | 37 | 33 | 0.0 | 0.0 | 0.00 | 0.00 | 0.00 | 78 | 1010.2 |
| 20260508050219 | 37 | 33 | 0.0 | 0.0 | 0.00 | 0.00 | 0.00 | 77 | 1010.1 |
| 20260508045717 | 37 | 33 | 0.0 | 0.0 | 0.00 | 0.00 | 0.00 | 76 | 1010.2 |
| 20260508045218 | 37 | 33 | 0.0 | 0.0 | 0.00 | 0.00 | 0.00 | 75 | 1010.2 |
| 20260508044716 | 37 | 33 | 0.0 | 0.0 | 0.00 | 0.00 | 0.00 | 80 | 1010.1 |
| 20260508044215 | 37 | 33 | 0.0 | 0.0 | 0.00 | 0.00 | 0.00 | 78 | 1010.0 |
| 20260508043714 | 37 | 33 | 0.0 | 0.0 | 0.00 | 0.00 | 0.00 | 77 | 1010.1 |
| 20260508043215 | 38 | 33 | 0.0 | 0.0 | 0.00 | 0.00 | 0.00 | 76 | 1010.1 |
| 20260508042712 | 38 | 33 | 0.0 | 0.0 | 0.00 | 0.00 | 0.00 | 77 | 1010.1 |
| 20260508042212 | 38 | 33 | 0.0 | 0.0 | 0.00 | 0.00 | 0.00 | 76 | 1010.2 |
| 20260508041709 | 38 | 33 | 0.0 | 0.0 | 0.00 | 0.00 | 0.00 | 76 | 1010.3 |
| 20260508041207 | 38 | 33 | 0.0 | 0.0 | 0.00 | 0.00 | 0.00 | 77 | 1010.3 |
| 20260508040706 | 39 | 33 | 0.0 | 0.0 | 0.00 | 0.00 | 0.00 | 73 | 1010.3 |
| 20260508040205 | 39 | 33 | 0.0 | 0.0 | 0.00 | 0.00 | 0.00 | 73 | 1010.3 |
| 20260508035705 | 39 | 33 | 0.0 | 0.0 | 0.00 | 0.00 | 0.00 | 74 | 1010.3 |
| 20260508035208 | 40 | 33 | 0.0 | 2.0 | 0.00 | 0.00 | 0.00 | 73 | 1010.2 |
| 20260508034934 | 40 | 33 | 1.0 | 2.0 | 0.00 | 0.00 | 0.00 | 73 | 1010.2 |
| 20260508034204 | 40 | 33 | 1.0 | 2.0 | 0.00 | 0.00 | 0.00 | 68 | 1010.2 |
| 20260508033705 | 40 | 33 | 1.0 | 2.0 | 0.00 | 0.00 | 0.00 | 70 | 1010.1 |
| 20260508033205 | 40 | 33 | 1.0 | 2.0 | 0.00 | 0.00 | 0.00 | 74 | 1010.1 |
| 20260508032703 | 40 | 33 | 1.0 | 2.0 | 0.00 | 0.00 | 0.00 | 75 | 1010.1 |
| 20260508032204 | 40 | 33 | 1.0 | 2.0 | 0.00 | 0.00 | 0.00 | 74 | 1010.1 |
| 20260508031703 | 41 | 33 | 1.0 | 2.0 | 0.00 | 0.00 | 0.00 | 69 | 1010.1 |
| 20260508031203 | 41 | 33 | 1.0 | 2.0 | 0.00 | 0.00 | 0.00 | 67 | 1010.0 |
| 20260508030705 | 41 | 33 | 1.0 | 3.0 | 0.00 | 0.00 | 0.00 | 69 | 1010.2 |
| 20260508030201 | 41 | 33 | 2.0 | 3.0 | 0.00 | 0.00 | 0.00 | 69 | 1010.2 |
| 20260508025933 | 41 | 33 | 2.0 | 3.0 | 0.00 | 0.00 | 0.00 | 70 | 1010.1 |
| 20260508025202 | 41 | 33 | 2.0 | 3.0 | 0.00 | 0.01 | 0.00 | 70 | 1010.2 |
| 20260508024701 | 41 | 33 | 2.0 | 3.0 | 0.00 | 0.01 | 0.00 | 74 | 1010.1 |
| 20260508024434 | 41 | 33 | 2.0 | 3.0 | 0.00 | 0.01 | 0.00 | 73 | 1010.1 |
| 20260508023658 | 41 | 33 | 2.0 | 3.0 | 0.00 | 0.01 | 0.00 | 70 | 1010.1 |
| 20260508023430 | 41 | 33 | 2.0 | 3.0 | 0.00 | 0.01 | 0.00 | 70 | 1010.1 |
| 20260508022657 | 41 | 33 | 2.0 | 3.0 | 0.00 | 0.01 | 0.00 | 71 | 1010.1 |
| 20260508022157 | 41 | 33 | 2.0 | 3.0 | 0.00 | 0.01 | 0.00 | 73 | 1010.1 |
| 20260508021929 | 42 | 33 | 2.0 | 3.0 | 0.00 | 0.01 | 0.00 | 70 | 1010.0 |
| 20260508021158 | 42 | 33 | 2.0 | 3.0 | 0.00 | 0.01 | 0.00 | 71 | 1009.9 |
| 20260508020653 | 42 | 33 | 2.0 | 3.0 | 0.00 | 0.02 | 0.00 | 72 | 1009.8 |
| 20260508020154 | 42 | 33 | 2.0 | 3.0 | 0.00 | 0.02 | 0.00 | 68 | 1009.8 |
| 20260508015654 | 43 | 33 | 2.0 | 3.0 | 0.00 | 0.02 | 0.00 | 67 | 1009.9 |
| 20260508015154 | 43 | 33 | 2.0 | 3.0 | 0.00 | 0.03 | 0.00 | 72 | 1009.8 |
| 20260508014654 | 43 | 33 | 1.0 | 2.0 | 0.00 | 0.03 | 0.00 | 70 | 1009.9 |
| 20260508014154 | 43 | 33 | 1.0 | 2.0 | 0.00 | 0.03 | 0.00 | 71 | 1009.8 |
| 20260508013925 | 43 | 33 | 1.0 | 2.0 | 0.00 | 0.03 | 0.00 | 72 | 1009.8 |
| 20260508013146 | 43 | 33 | 1.0 | 2.0 | 0.00 | 0.03 | 0.00 | 68 | 1009.9 |
| 20260508012645 | 43 | 33 | 1.0 | 2.0 | 0.00 | 0.04 | 0.00 | 69 | 1009.8 |
| 20260508012147 | 44 | 33 | 1.0 | 2.0 | 0.00 | 0.04 | 0.00 | 67 | 1009.9 |
| 20260508011646 | 44 | 33 | 1.0 | 2.0 | 0.00 | 0.05 | 0.00 | 64 | 1009.8 |
| 20260508011144 | 44 | 33 | 2.0 | 3.0 | 0.00 | 0.05 | 0.00 | 64 | 1009.7 |
| 20260508010142 | 44 | 33 | 1.0 | 2.0 | 0.00 | 0.06 | 0.00 | 62 | 1009.6 |
| 20260508005639 | 44 | 33 | 0.0 | 0.0 | 0.00 | 0.06 | 0.00 | 62 | 1009.6 |
| 20260508005139 | 44 | 33 | 0.0 | 0.0 | 0.00 | 0.06 | 0.00 | 62 | 1009.6 |
| 20260508004639 | 44 | 33 | 0.0 | 0.0 | 0.00 | 0.07 | 0.00 | 61 | 1009.5 |
| 20260508004136 | 44 | 33 | 0.0 | 0.0 | 0.00 | 0.07 | 0.00 | 64 | 1009.4 |
| 20260508003636 | 44 | 33 | 0.0 | 0.0 | 0.00 | 0.08 | 0.00 | 62 | 1009.4 |
| 20260508003130 | 45 | 33 | 0.0 | 0.0 | 0.00 | 0.08 | 0.00 | 63 | 1009.3 |
| 20260508002630 | 45 | 33 | 0.0 | 0.0 | 0.00 | 0.09 | 0.00 | 60 | 1009.2 |
| 20260508002357 | 45 | 33 | 0.0 | 0.0 | 0.00 | 0.09 | 0.00 | 58 | 1009.2 |
| 20260508001624 | 45 | 33 | 0.0 | 0.0 | 0.00 | 0.09 | 0.00 | 62 | 1009.2 |
| 20260508001124 | 45 | 33 | 0.0 | 0.0 | 0.00 | 0.09 | 0.00 | 63 | 1009.2 |
| 20260508000849 | 45 | 33 | 0.0 | 0.0 | 0.00 | 0.09 | 0.00 | 63 | 1009.2 |
| 20260508000118 | 46 | 33 | 0.0 | 0.0 | 0.00 | 0.09 | 0.00 | 60 | 1009.1 |
| 20260507235619 | 46 | 33 | 0.0 | 0.0 | 0.00 | 0.09 | 0.00 | 63 | 1009.1 |
| 20260507235350 | 46 | 33 | 0.0 | 0.0 | 0.00 | 0.09 | 0.00 | 61 | 1009.1 |
| 20260507234616 | 47 | 33 | 0.0 | 2.0 | 0.00 | 0.09 | 0.00 | 55 | 1009.0 |
| 20260507234117 | 47 | 33 | 0.0 | 2.0 | 0.00 | 0.09 | 0.00 | 59 | 1009.0 |
| 20260507233613 | 48 | 33 | 1.0 | 4.0 | 0.00 | 0.09 | 0.00 | 57 | 1008.9 |
| 20260507233112 | 48 | 33 | 1.0 | 4.0 | 0.00 | 0.09 | 0.00 | 54 | 1008.9 |
| 20260507232612 | 49 | 33 | 1.0 | 4.0 | 0.00 | 0.09 | 0.00 | 56 | 1008.7 |
| 20260507232110 | 50 | 33 | 1.0 | 4.0 | 0.00 | 0.09 | 0.00 | 50 | 1008.7 |
| 20260507231609 | 50 | 33 | 1.0 | 4.0 | 0.00 | 0.09 | 0.00 | 46 | 1008.6 |
| 20260507231112 | 50 | 26 | 1.0 | 4.0 | 0.00 | 0.09 | 0.00 | 46 | 1008.5 |
| 20260507230605 | 51 | 18 | 1.0 | 4.0 | 0.00 | 0.09 | 0.00 | 45 | 1008.6 |
| 20260507225834 | 51 | 55 | 0.0 | 2.0 | 0.00 | 0.09 | 0.00 | 58 | 1008.3 |
| 20260507225102 | 51 | 63 | 0.0 | 2.0 | 0.00 | 0.09 | 0.00 | 52 | 1008.3 |
| 20260507224600 | 51 | 63 | 1.0 | 3.0 | 0.00 | 0.09 | 0.00 | 56 | 1008.2 |
| 20260507224102 | 52 | 63 | 1.0 | 3.0 | 0.00 | 0.09 | 0.00 | 48 | 1008.0 |
| 20260507223058 | 53 | 84 | 1.0 | 3.0 | 0.00 | 0.09 | 0.00 | 50 | 1007.9 |
| 20260507222559 | 53 | 33 | 1.0 | 3.0 | 0.00 | 0.09 | 0.00 | 47 | 1007.9 |
| 20260507222326 | 53 | 34 | 1.0 | 3.0 | 0.00 | 0.09 | 0.00 | 47 | 1007.9 |
| 20260507221554 | 53 | 293 | 1.0 | 3.0 | 0.00 | 0.09 | 0.00 | 48 | 1007.8 |
| 20260507221055 | 53 | 141 | 0.0 | 2.0 | 0.00 | 0.09 | 0.00 | 49 | 1007.8 |
| 20260507220823 | 53 | 140 | 1.0 | 3.0 | 0.00 | 0.09 | 0.00 | 43 | 1007.8 |
| 20260507220049 | 54 | 141 | 1.0 | 3.0 | 0.00 | 0.09 | 0.00 | 44 | 1007.8 |
| 20260507215549 | 54 | 32 | 1.0 | 3.0 | 0.00 | 0.09 | 0.00 | 41 | 1007.7 |
| 20260507215050 | 54 | 314 | 1.0 | 4.0 | 0.00 | 0.09 | 0.00 | 46 | 1007.8 |
| 20260507214547 | 54 | 284 | 2.0 | 6.0 | 0.00 | 0.09 | 0.00 | 40 | 1007.7 |
| 20260507214049 | 55 | 317 | 2.0 | 6.0 | 0.00 | 0.09 | 0.00 | 38 | 1007.6 |
| 20260507213546 | 55 | 47 | 2.0 | 7.0 | 0.00 | 0.09 | 0.00 | 40 | 1007.6 |
| 20260507213045 | 55 | 53 | 2.0 | 7.0 | 0.00 | 0.09 | 0.00 | 39 | 1007.4 |
| 20260507212547 | 55 | 38 | 2.0 | 5.0 | 0.00 | 0.09 | 0.00 | 38 | 1007.7 |
| 20260507212044 | 56 | 247 | 1.0 | 3.0 | 0.00 | 0.09 | 0.00 | 43 | 1007.4 |
| 20260507211544 | 56 | 355 | 2.0 | 6.0 | 0.00 | 0.11 | 0.00 | 41 | 1007.7 |
| 20260507211044 | 56 | 34 | 1.0 | 6.0 | 0.00 | 0.12 | 0.00 | 38 | 1007.4 |
| 20260507210540 | 56 | 118 | 2.0 | 7.0 | 0.00 | 0.13 | 0.00 | 41 | 1007.3 |
| 20260507210040 | 56 | 260 | 2.0 | 7.0 | 0.00 | 0.14 | 0.00 | 38 | 1007.2 |
| 20260507205541 | 56 | 42 | 2.0 | 8.0 | 0.00 | 0.15 | 0.00 | 44 | 1007.3 |
| 20260507205038 | 56 | 163 | 2.0 | 8.0 | 0.00 | 0.18 | 0.00 | 39 | 1007.0 |
| 20260507204535 | 56 | 29 | 2.0 | 5.0 | 0.00 | 0.20 | 0.00 | 45 | 1007.2 |
| 20260507204037 | 56 | 16 | 2.0 | 6.0 | 0.00 | 0.20 | 0.00 | 37 | 1007.1 |
| 20260507203803 | 56 | 112 | 2.0 | 6.0 | 0.00 | 0.21 | 0.00 | 41 | 1007.1 |
| 20260507203032 | 56 | 113 | 2.0 | 6.0 | 0.00 | 0.21 | 0.00 | 41 | 1007.1 |
| 20260507202531 | 56 | 61 | 2.0 | 9.0 | 0.00 | 0.21 | 0.00 | 46 | 1007.1 |
| 20260507202300 | 55 | 24 | 2.0 | 9.0 | 0.00 | 0.21 | 0.00 | 44 | 1007.2 |
| 20260507201530 | 56 | 343 | 2.0 | 8.0 | 0.00 | 0.21 | 0.00 | 41 | 1007.2 |
| 20260507201030 | 56 | 13 | 2.0 | 8.0 | 0.00 | 0.21 | 0.00 | 38 | 1007.2 |
| 20260507200523 | 56 | 312 | 2.0 | 4.0 | 0.00 | 0.21 | 0.00 | 38 | 1007.2 |
| 20260507200023 | 56 | 42 | 2.0 | 6.0 | 0.00 | 0.22 | 0.00 | 37 | 1007.2 |
| 20260507195523 | 56 | 240 | 2.0 | 11.0 | 0.00 | 0.22 | 0.00 | 40 | 1007.3 |
| 20260507195021 | 56 | 284 | 3.0 | 11.0 | 0.00 | 0.22 | 0.00 | 40 | 1007.2 |
| 20260507194522 | 57 | 313 | 2.0 | 7.0 | 0.00 | 0.22 | 0.00 | 38 | 1007.2 |
| 20260507194020 | 56 | 325 | 2.0 | 7.0 | 0.00 | 0.22 | 0.00 | 39 | 1007.3 |
| 20260507193753 | 56 | 340 | 2.0 | 7.0 | 0.00 | 0.22 | 0.00 | 41 | 1007.3 |
| 20260507193015 | 56 | 128 | 2.0 | 7.0 | 0.00 | 0.22 | 0.00 | 42 | 1007.3 |
| 20260507192514 | 56 | 51 | 2.0 | 10.0 | 0.00 | 0.22 | 0.00 | 39 | 1007.4 |
| 20260507192014 | 55 | 341 | 2.0 | 10.0 | 0.00 | 0.22 | 0.00 | 38 | 1007.6 |
| 20260507191514 | 57 | 13 | 2.0 | 5.0 | 0.00 | 0.23 | 0.00 | 40 | 1007.4 |
| 20260507191014 | 59 | 43 | 2.0 | 4.0 | 0.00 | 0.23 | 0.00 | 37 | 1007.7 |
| 20260507190514 | 60 | 355 | 2.0 | 6.0 | 0.00 | 0.23 | 0.00 | 37 | 1007.6 |
| 20260507190010 | 59 | 213 | 3.0 | 8.0 | 0.00 | 0.23 | 0.00 | 36 | 1007.4 |
| 20260507185509 | 58 | 51 | 3.0 | 8.0 | 0.00 | 0.23 | 0.00 | 38 | 1007.6 |
| 20260507185241 | 58 | 246 | 2.0 | 6.0 | 0.00 | 0.23 | 0.00 | 40 | 1007.8 |
| 20260507184510 | 57 | 192 | 2.0 | 5.0 | 0.00 | 0.23 | 0.00 | 43 | 1007.9 |
| 20260507184009 | 56 | 103 | 2.0 | 8.0 | 0.00 | 0.23 | 0.00 | 49 | 1007.9 |
| 20260507183511 | 56 | 327 | 2.0 | 8.0 | 0.00 | 0.24 | 0.00 | 42 | 1008.0 |
| 20260507183005 | 56 | 123 | 2.0 | 7.0 | 0.00 | 0.24 | 0.00 | 47 | 1008.0 |
| 20260507182505 | 58 | 13 | 3.0 | 7.0 | 0.00 | 0.25 | 0.00 | 40 | 1008.0 |
| 20260507182007 | 59 | 305 | 3.0 | 8.0 | 0.00 | 0.26 | 0.00 | 39 | 1007.9 |
| 20260507181505 | 59 | 0 | 3.0 | 8.0 | 0.00 | 0.27 | 0.00 | 42 | 1008.1 |
| 20260507181006 | 58 | 166 | 3.0 | 10.0 | 0.00 | 0.29 | 0.00 | 42 | 1008.1 |
| 20260507180739 | 58 | 205 | 2.0 | 10.0 | 0.00 | 0.30 | 0.00 | 47 | 1008.0 |
| 20260507180001 | 55 | 121 | 2.0 | 6.0 | 0.00 | 0.32 | 0.00 | 46 | 1008.2 |
| 20260507175502 | 56 | 257 | 2.0 | 5.0 | 0.00 | 0.33 | 0.00 | 46 | 1008.2 |
| 20260507175002 | 56 | 116 | 2.0 | 6.0 | 0.00 | 0.34 | 0.00 | 48 | 1008.1 |
| 20260507174732 | 56 | 80 | 2.0 | 6.0 | 0.00 | 0.36 | 0.00 | 48 | 1008.2 |
| 20260507173959 | 56 | 69 | 2.0 | 7.0 | 0.00 | 0.39 | 0.00 | 50 | 1008.2 |
| 20260507173459 | 55 | 301 | 2.0 | 7.0 | 0.00 | 0.48 | 0.00 | 47 | 1008.2 |
| 20260507172953 | 55 | 192 | 3.0 | 7.0 | 0.00 | 0.52 | 0.00 | 46 | 1008.3 |
| 20260507172453 | 57 | 153 | 3.0 | 7.0 | 0.00 | 0.61 | 0.00 | 43 | 1008.3 |
| 20260507172222 | 57 | 62 | 3.0 | 8.0 | 0.00 | 0.67 | 0.00 | 49 | 1008.3 |
| 20260507171451 | 56 | 0 | 3.0 | 10.0 | 0.00 | 0.70 | 0.00 | 48 | 1008.4 |
| 20260507170951 | 56 | 87 | 3.0 | 10.0 | 0.00 | 0.71 | 0.00 | 47 | 1008.6 |
| 20260507170453 | 55 | 53 | 2.0 | 7.0 | 0.00 | 0.71 | 0.00 | 47 | 1008.6 |
| 20260507165946 | 55 | 63 | 2.0 | 4.0 | 0.00 | 0.72 | 0.00 | 49 | 1008.7 |
| 20260507165445 | 54 | 296 | 2.0 | 6.0 | 0.00 | 0.72 | 0.00 | 53 | 1008.8 |
| 20260507165215 | 55 | 185 | 2.0 | 6.0 | 0.00 | 0.72 | 0.00 | 45 | 1008.9 |
| 20260507164443 | 55 | 40 | 2.0 | 4.0 | 0.00 | 0.73 | 0.00 | 47 | 1009.0 |
| 20260507163941 | 54 | 169 | 1.0 | 4.0 | 0.00 | 0.73 | 0.00 | 53 | 1008.9 |
| 20260507163442 | 53 | 257 | 2.0 | 4.0 | 0.00 | 0.73 | 0.00 | 51 | 1009.0 |
| 20260507162940 | 54 | 108 | 2.0 | 7.0 | 0.00 | 0.73 | 0.00 | 49 | 1009.0 |
| 20260507162437 | 54 | 267 | 2.0 | 7.0 | 0.00 | 0.74 | 0.00 | 51 | 1009.1 |
| 20260507161938 | 54 | 205 | 2.0 | 6.0 | 0.00 | 0.74 | 0.00 | 46 | 1009.2 |
| 20260507161437 | 54 | 40 | 2.0 | 7.0 | 0.00 | 0.74 | 0.00 | 48 | 1009.3 |
| 20260507160938 | 54 | 60 | 2.0 | 7.0 | 0.00 | 0.74 | 0.00 | 47 | 1009.4 |
| 20260507160437 | 56 | 152 | 3.0 | 7.0 | 0.00 | 0.74 | 0.00 | 50 | 1009.5 |
| 20260507155939 | 56 | 268 | 3.0 | 13.0 | 0.00 | 0.74 | 0.00 | 44 | 1009.5 |
| 20260507155432 | 56 | 194 | 4.0 | 13.0 | 0.00 | 0.74 | 0.00 | 43 | 1009.4 |
| 20260507154931 | 56 | 211 | 4.0 | 12.0 | 0.00 | 0.74 | 0.00 | 43 | 1009.4 |
| 20260507154431 | 56 | 315 | 4.0 | 15.0 | 0.00 | 0.74 | 0.00 | 45 | 1009.6 |
| 20260507153931 | 56 | 269 | 4.0 | 15.0 | 0.00 | 0.74 | 0.00 | 50 | 1009.6 |
| 20260507153431 | 56 | 174 | 3.0 | 10.0 | 0.00 | 0.75 | 0.00 | 48 | 1009.4 |
| 20260507152932 | 56 | 271 | 3.0 | 10.0 | 0.00 | 0.75 | 0.00 | 48 | 1009.6 |
| 20260507152657 | 56 | 194 | 2.0 | 5.0 | 0.00 | 0.75 | 0.00 | 53 | 1009.5 |
| 20260507151924 | 54 | 347 | 3.0 | 8.0 | 0.00 | 0.75 | 0.00 | 56 | 1009.4 |
| 20260507151422 | 53 | 37 | 3.0 | 9.0 | 0.00 | 0.75 | 0.00 | 60 | 1009.4 |
| 20260507150919 | 54 | 270 | 2.0 | 9.0 | 0.00 | 0.76 | 0.00 | 59 | 1009.6 |
| 20260507150419 | 55 | 33 | 2.0 | 7.0 | 0.00 | 0.76 | 0.00 | 59 | 1009.5 |
| 20260507145914 | 54 | 348 | 2.0 | 7.0 | 0.00 | 0.76 | 0.00 | 61 | 1009.5 |
| 20260507145415 | 56 | 179 | 2.0 | 7.0 | 0.00 | 0.76 | 0.00 | 62 | 1009.5 |
| 20260507144914 | 55 | 69 | 2.0 | 7.0 | 0.00 | 0.77 | 0.00 | 70 | 1009.5 |
| 20260507144412 | 54 | 49 | 2.0 | 8.0 | 0.00 | 0.77 | 0.00 | 68 | 1009.4 |
| 20260507143913 | 52 | 175 | 1.0 | 8.0 | 0.00 | 0.78 | 0.00 | 76 | 1009.5 |
| 20260507143645 | 51 | 196 | 2.0 | 7.0 | 0.00 | 0.78 | 0.00 | 74 | 1009.4 |
| 20260507142908 | 53 | 40 | 2.0 | 7.0 | 0.00 | 0.78 | 0.00 | 68 | 1009.6 |
| 20260507142407 | 53 | 207 | 2.0 | 7.0 | 0.00 | 0.78 | 0.00 | 67 | 1009.5 |
| 20260507142139 | 52 | 310 | 2.0 | 7.0 | 0.00 | 0.78 | 0.00 | 69 | 1009.5 |
| 20260507141407 | 50 | 94 | 2.0 | 6.0 | 0.00 | 0.78 | 0.00 | 88 | 1009.6 |
| 20260507140909 | 49 | 94 | 2.0 | 4.0 | 0.00 | 0.78 | 0.00 | 87 | 1009.6 |
| 20260507140407 | 50 | 136 | 2.0 | 6.0 | 0.00 | 0.78 | 0.00 | 94 | 1009.6 |
| 20260507135903 | 49 | 101 | 2.0 | 6.0 | 0.00 | 0.78 | 0.00 | 96 | 1009.7 |
| 20260507135636 | 48 | 92 | 1.0 | 4.0 | 0.00 | 0.78 | 0.00 | 98 | 1009.7 |
| 20260507134903 | 47 | 117 | 1.0 | 3.0 | 0.00 | 0.78 | 0.00 | 99 | 1009.8 |
| 20260507134404 | 45 | 117 | 1.0 | 3.0 | 0.00 | 0.78 | 0.00 | 98 | 1009.7 |
| 20260507133900 | 45 | 117 | 1.0 | 3.0 | 0.00 | 0.78 | 0.00 | 99 | 1009.7 |
| 20260507133402 | 45 | 117 | 2.0 | 3.0 | 0.00 | 0.78 | 0.00 | 99 | 1009.7 |
| 20260507132859 | 45 | 117 | 2.0 | 6.0 | 0.00 | 0.78 | 0.00 | 99 | 1009.8 |
| 20260507132356 | 45 | 117 | 2.0 | 6.0 | 0.00 | 0.78 | 0.00 | 100 | 1009.7 |
| 20260507131858 | 46 | 119 | 2.0 | 6.0 | 0.00 | 0.78 | 0.00 | 100 | 1009.7 |
| 20260507131356 | 46 | 89 | 3.0 | 6.0 | 0.00 | 0.78 | 0.00 | 100 | 1009.8 |
| 20260507130854 | 46 | 96 | 3.0 | 6.0 | 0.00 | 0.78 | 0.00 | 100 | 1009.6 |
| 20260507130356 | 45 | 89 | 2.0 | 5.0 | 0.00 | 0.78 | 0.00 | 100 | 1009.6 |
| 20260507125849 | 45 | 129 | 2.0 | 3.0 | 0.00 | 0.78 | 0.00 | 100 | 1009.7 |
| 20260507125619 | 44 | 132 | 1.0 | 3.0 | 0.00 | 0.78 | 0.00 | 100 | 1009.8 |
| 20260507124849 | 44 | 132 | 1.0 | 2.0 | 0.00 | 0.78 | 0.00 | 100 | 1009.9 |
| 20260507124348 | 43 | 132 | 1.0 | 2.0 | 0.00 | 0.78 | 0.00 | 100 | 1009.8 |
| 20260507123849 | 43 | 132 | 1.0 | 2.0 | 0.00 | 0.78 | 0.00 | 100 | 1009.9 |
| 20260507123350 | 43 | 132 | 1.0 | 2.0 | 0.00 | 0.78 | 0.00 | 100 | 1009.8 |
| 20260507122844 | 42 | 132 | 1.0 | 3.0 | 0.00 | 0.78 | 0.00 | 99 | 1009.8 |
| 20260507122343 | 42 | 132 | 2.0 | 3.0 | 0.00 | 0.78 | 0.00 | 99 | 1009.9 |
| 20260507121840 | 43 | 132 | 2.0 | 3.0 | 0.00 | 0.78 | 0.00 | 100 | 1009.8 |
| 20260507121342 | 43 | 132 | 2.0 | 4.0 | 0.00 | 0.78 | 0.00 | 100 | 1009.9 |
| 20260507120840 | 43 | 132 | 2.0 | 4.0 | 0.00 | 0.78 | 0.00 | 100 | 1009.9 |
| 20260507120342 | 43 | 121 | 1.0 | 4.0 | 0.00 | 0.78 | 0.00 | 100 | 1009.9 |
| 20260507115835 | 42 | 171 | 0.0 | 2.0 | 0.00 | 0.78 | 0.00 | 100 | 1009.9 |
| 20260507114829 | 42 | 125 | 0.0 | 0.0 | 0.00 | 0.78 | 0.00 | 100 | 1009.7 |
| 20260507114557 | 41 | 125 | 0.0 | 0.0 | 0.00 | 0.78 | 0.00 | 100 | 1009.6 |
| 20260507114056 | 41 | 125 | 0.0 | 0.0 | 0.00 | 0.78 | 0.00 | 99 | 1009.7 |
| 20260507113324 | 41 | 125 | 0.0 | 0.0 | 0.00 | 0.78 | 0.00 | 99 | 1009.7 |
| 20260507113056 | 41 | 125 | 0.0 | 0.0 | 0.00 | 0.78 | 0.00 | 99 | 1009.8 |
| 20260507112326 | 41 | 125 | 0.0 | 0.0 | 0.00 | 0.78 | 0.00 | 99 | 1009.8 |
| 20260507111825 | 41 | 125 | 0.0 | 0.0 | 0.00 | 0.78 | 0.00 | 99 | 1009.8 |
| 20260507111551 | 41 | 125 | 0.0 | 0.0 | 0.00 | 0.78 | 0.00 | 99 | 1009.8 |
| 20260507110822 | 40 | 125 | 1.0 | 3.0 | 0.00 | 0.78 | 0.00 | 99 | 1009.6 |
| 20260507110320 | 41 | 125 | 1.0 | 3.0 | 0.00 | 0.78 | 0.00 | 99 | 1009.8 |
| 20260507105821 | 41 | 127 | 0.0 | 2.0 | 0.00 | 0.78 | 0.00 | 99 | 1009.8 |
| 20260507105321 | 41 | 127 | 0.0 | 2.0 | 0.00 | 0.78 | 0.00 | 99 | 1009.7 |
| 20260507104822 | 40 | 127 | 0.0 | 1.0 | 0.00 | 0.78 | 0.00 | 99 | 1009.7 |
| 20260507104321 | 40 | 127 | 0.0 | 0.0 | 0.00 | 0.78 | 0.00 | 99 | 1009.7 |
| 20260507103820 | 40 | 127 | 0.0 | 3.0 | 0.00 | 0.78 | 0.00 | 99 | 1009.7 |
| 20260507102821 | 40 | 351 | 0.0 | 0.0 | 0.00 | 0.78 | 0.00 | 99 | 1009.7 |
| 20260507102320 | 40 | 351 | 0.0 | 0.0 | 0.00 | 0.78 | 0.00 | 99 | 1009.6 |
| 20260507101819 | 40 | 351 | 0.0 | 0.0 | 0.00 | 0.78 | 0.00 | 99 | 1009.6 |
| 20260507101318 | 39 | 351 | 0.0 | 0.0 | 0.00 | 0.78 | 0.00 | 99 | 1009.5 |
| 20260507100817 | 39 | 351 | 0.0 | 0.0 | 0.00 | 0.78 | 0.00 | 99 | 1009.5 |
| 20260507100314 | 39 | 351 | 0.0 | 0.0 | 0.00 | 0.78 | 0.00 | 99 | 1009.4 |
| 20260507095812 | 39 | 351 | 0.0 | 0.0 | 0.00 | 0.78 | 0.00 | 99 | 1009.6 |
| 20260507095311 | 39 | 351 | 0.0 | 0.0 | 0.00 | 0.78 | 0.00 | 99 | 1009.7 |
| 20260507094811 | 39 | 351 | 0.0 | 0.0 | 0.00 | 0.78 | 0.00 | 99 | 1009.6 |
| 20260507094310 | 39 | 351 | 0.0 | 0.0 | 0.00 | 0.78 | 0.00 | 99 | 1009.6 |
| 20260507093808 | 39 | 351 | 0.0 | 0.0 | 0.00 | 0.78 | 0.00 | 99 | 1009.6 |
| 20260507093309 | 39 | 351 | 0.0 | 0.0 | 0.00 | 0.78 | 0.00 | 99 | 1009.6 |
| 20260507092802 | 39 | 351 | 0.0 | 0.0 | 0.00 | 0.78 | 0.00 | 99 | 1009.8 |
| 20260507092306 | 39 | 351 | 0.0 | 0.0 | 0.00 | 0.78 | 0.00 | 99 | 1009.7 |
| 20260507091804 | 39 | 351 | 0.0 | 0.0 | 0.00 | 0.78 | 0.00 | 99 | 1009.7 |
| 20260507091302 | 38 | 351 | 0.0 | 0.0 | 0.00 | 0.78 | 0.00 | 99 | 1009.8 |